Zurück zum Katalog

COSMOS 2482

AktivNavigationPO
NORAD 39057·PAYLOAD·🇷🇺 Russia

Gestartet Jan 15, 2013 von Plesetsk Cosmodrome

Loading…

Nächste Überflüge (nächste 24 Stunden)

TLE

AktuellSource: Space-Track

Epoche: Sep 14, 2026, 22:43 UTC

1 39057U 13001A   26257.94687123 -.00000022  00000-0 -22720-3 0  9993
2 39057  82.5031 164.5372 0026667 186.9205 173.1510 12.42997689619866

Verfolge COSMOS 2482 in Echtzeit mit AllMySat

Download on the App Store